This demonstration page uses our WeatherBlox Daily Observations layout. Learn more.

Left ArrowRight Arrow

41.86663, -103.66717

Hourly Observations for August 7, 2018

Temp ( °F °C ) Dew Point ( °F °C ) Humidity (%) Winds ( mph kmh ) Pressure ( in mb ) Visibility ( mi km ) Precip ( " mm )
12:53 am 00:53 Clear 59 15 59 15 100 100 NNE 3 6 30.07 1018 9 14 0.00 0.00
1:53 am 01:53 Clear 58 14.4 58 14.4 100 100 NNE 5 7 30.05 1018 9 14 0.00 0.00
2:53 am 02:53 Clear 55 12.8 55 12.8 100 100 NW 3 6 30.05 1018 8 13 0.00 0.00
3:53 am 03:53 Clear 55 12.8 55 12.8 100 100 Calm 30.04 1017 9 14 0.00 0.00
4:53 am 04:53 Clear with Mist and Fog 55 12.8 55 12.8 100 100 NE 3 6 30.05 1018 6 10 0.00 0.00
5:53 am 05:53 Clear with Mist and Fog 54 12.2 54 12.2 100 100 Calm 30.05 1018 4 6 0.00 0.00
6:53 am 06:53 Sunny 56 13.3 56 13.3 100 100 Calm 30.06 1018 7 11 0.00 0.00
7:04 am 07:04 Partly Cloudy with Mist and Fog 57 13.9 57 13.9 100 100 SE 6 9 30.03 1017 5 8 0.00 0.00
7:08 am 07:08 Partly Cloudy with Mist and Fog 55 13 55 13 100 100 SE 7 11 30.03 1017 1 2 0.00 0.00
7:12 am 07:12 Mostly Cloudy with Fog 56 13.3 56 13.3 100 100 ESE 7 11 30.06 1018 0 0 0.00 0.00
7:39 am 07:39 Mostly Cloudy with Fog 56 13.3 56 13.3 100 100 ESE 9 15 30.03 1017 5 8 0.00 0.00
7:53 am 07:53 Mostly Cloudy with Fog 57 13.9 57 13.9 100 100 ESE 9 15 30.07 1018 5 8 0.00 0.00
8:24 am 08:24 Mostly Cloudy with Fog 59 15 59 15 100 100 SE 8 13 30.06 1018 0 0 0.00 0.00
8:31 am 08:31 Mostly Cloudy with Mist and Fog 59 15 59 15 100 100 SE 7 11 30.06 1018 1 2 0.00 0.00
8:43 am 08:43 Cloudy with Mist and Fog 61 16 61 16 100 100 ESE 7 11 30.03 1017 3 5 0.00 0.00
8:53 am 08:53 Mostly Cloudy with Mist and Fog 61 16.1 61 16.1 100 100 ESE 8 13 30.07 1018 6 10 0.00 0.00
9:12 am 09:12 Mostly Sunny 64 17.8 62 16.7 93 93 SE 6 9 29.97 1015 7 11 0.00 0.00
9:53 am 09:53 Sunny 69 20.6 64 17.8 84 84 SSE 5 7 30.04 1017 9 14 0.00 0.00
10:53 am 10:53 Sunny 75 23.9 63 17.2 66 66 S 6 9 30.02 1017 10 16 0.00 0.00
11:53 am 11:53 Sunny 79 26.1 61 16.1 54 54 undefined N/A 29.99 1016 10 16 0.00 0.00
12:53 pm 12:53 Sunny 82 27.8 60 15.6 47 47 NNE 7 11 29.97 1015 10 16 0.00 0.00
1:53 pm 13:53 Sunny 85 29.4 54 12.2 35 35 undefined N/A 29.94 1014 10 16 0.00 0.00
2:53 pm 14:53 Sunny 88 31.1 39 3.9 18 18 NW 7 11 29.93 1014 10 16 0.00 0.00
3:53 pm 15:53 Sunny 88 31.1 51 10.6 28 28 Calm 29.91 1013 10 16 0.00 0.00
4:53 pm 16:53 Sunny 87 30.6 52 11.1 30 30 ESE 3 6 29.90 1013 10 16 0.00 0.00
5:53 pm 17:53 Sunny 86 30 57 13.9 37 37 ENE 8 13 29.90 1012 10 16 0.00 0.00
6:53 pm 18:53 Sunny 82 27.8 62 16.7 51 51 E 7 11 29.91 1013 10 16 0.00 0.00
7:53 pm 19:53 Sunny 75 23.9 62 16.7 64 64 NE 10 17 29.93 1014 10 16 0.00 0.00
8:53 pm 20:53 Clear 71 21.7 62 16.7 73 73 ENE 8 13 29.95 1014 10 16 0.00 0.00
9:53 pm 21:53 Clear 71 21.7 62 16.7 73 73 Calm 29.98 1015 10 16 0.00 0.00
10:20 pm 22:20 Partly Cloudy with Nearby Thunderstorms 70 21 63 17 78 78 S 8 13 29.94 1014 10 16 0.00 0.00
10:30 pm 22:30 Mostly Cloudy with Thunderstorms 70 21 63 17 78 78 S 12 19 29.94 1014 10 16 0.00 0.00
10:45 pm 22:45 Partly Cloudy with Nearby Thunderstorms 72 22.2 61 16.1 68 68 E 9 15 29.88 1012 10 16 0.00 0.03
10:53 pm 22:53 Partly Cloudy with Nearby Thunderstorms 70 21.1 61 16.1 73 73 ESE 6 9 29.96 1015 10 16 0.00 0.03
11:09 pm 23:09 Clear 68 20 60 15.6 76 76 E 5 7 29.91 1013 10 16 0.00 0.00
11:53 pm 23:53 Clear 66 18.9 61 16.1 84 84 Calm 29.96 1015 10 16 0.00 0.00

Powered by AerisWeather